Location: Novokuznetsk
(53.7500°N, 87.1000°E)
Time: 04:53:00
(UTC+06:00)

ISS - Pass Details

Date: 18 July 2018
Orbit: 402 x 408 km, 51.6° (Epoch: 16 July)

Event Time Altitude Azimuth Distance (km) Brightness Sun altitude
Exits shadow 23:20:50 30° 183° (S) 755 -3.0 -14.3°
Maximum altitude 23:21:27 33° 158° (SSE) 705 -3.2 -14.3°
Drops below altitude 10° 23:24:28 10° 92° (E) 1,469 -1.2 -14.4°
Sets 23:26:40 0° 83° (E) 2,332 0.0 -14.5°
